Theta_e
303 303 304 304 305 304 304 303 303 303 303 302 302 301 301 301 301 300 300 299 299 298 298 298 297 296 296 296 295 295 295 294 294 293 293 292 292 291 291 291 290 290 290 289 289 289 288 288 288 288 288 287 287 287 287 287 286 286 286 285 285 284 284 284 284 284 283 283 283 282 283 284 284 284 284 284 284 285 285 285 285 284 284 284 284
301 301 301 303 303 303 303 303 303 303 302 302 301 301 301 301 301 300 300 299 299 298 298 297 297 297 296 295 295 295 294 294 293 293 292 292 292 291 291 290 290 290 290 289 289 288 288 288 288 288 287 287 287 287 286 286 286 285 285 285 284 284 284 284 284 283 282 282 281 281 282 283 283 284 283 283 283 284 284 284 284 284 284 284 284
300 299 299 300 302 302 301 301 302 303 302 302 301 301 300 300 300 299 299 299 298 298 298 297 297 297 296 295 295 294 294 293 293 292 292 292 291 291 290 290 290 290 289 289 289 288 288 288 288 287 287 287 287 286 286 285 285 285 285 284 284 284 284 283 283 283 282 281 281 281 282 282 283 283 282 283 283 282 283 283 283 283 284 283 283
299 298 298 298 299 300 300 299 299 300 300 300 300 299 299 298 298 298 298 298 298 297 297 296 296 295 295 295 294 294 293 293 292 292 291 291 290 290 289 289 289 289 289 289 288 288 288 288 288 287 287 286 286 286 285 285 285 285 284 284 284 283 283 283 283 282 282 282 281 281 281 281 284 282 280 282 282 281 282 282 282 282 282 282 281
298 298 297 297 297 298 299 299 298 298 298 299 299 298 298 298 298 298 298 298 297 297 296 295 294 293 293 293 292 292 291 291 290 290 290 290 289 289 289 289 289 289 289 288 288 288 288 288 287 287 287 286 286 285 285 285 285 284 284 284 284 283 283 283 282 281 281 281 281 281 281 283 283 280 279 282 282 281 281 280 280 280 280 280 280
299 298 297 296 296 297 298 298 298 297 297 298 298 298 298 297 297 297 297 297 296 296 295 294 294 293 292 291 290 290 289 289 290 290 290 290 289 289 289 289 288 288 288 288 288 288 288 287 287 287 286 286 286 285 285 285 284 284 284 284 283 283 283 282 282 281 281 280 280 280 281 282 281 279 279 281 280 280 280 280 280 279 279 279 278
299 299 297 296 296 296 297 297 297 297 297 297 297 297 297 297 296 296 296 296 295 295 294 293 293 293 292 291 291 290 289 289 290 290 290 290 289 289 289 288 288 288 288 288 288 288 288 287 287 287 286 286 285 285 285 284 284 284 284 283 283 283 283 282 281 281 280 280 280 279 279 279 279 278 279 279 279 280 279 279 279 278 278 278 277
299 299 298 297 296 295 296 296 296 297 297 297 296 296 296 296 295 295 295 295 295 294 293 293 292 292 292 291 291 290 289 290 290 290 290 290 289 289 289 288 288 288 288 288 288 288 287 287 287 286 286 286 285 285 285 284 284 284 283 283 283 282 282 282 282 281 280 280 279 279 279 278 278 278 277 278 278 278 278 278 278 277 277 277 276
298 298 298 297 295 295 296 296 296 296 296 296 296 296 295 295 295 294 294 294 294 293 292 292 292 292 291 290 290 290 289 289 289 289 289 289 289 289 289 288 288 288 288 288 287 287 287 287 287 286 286 286 285 285 284 284 284 283 283 283 282 282 282 281 281 281 280 280 279 278 278 278 277 277 276 276 276 276 276 276 276 276 276 276 276
298 298 298 296 295 296 296 295 295 295 296 296 295 295 294 294 293 293 293 293 293 293 292 292 291 291 291 290 290 289 289 289 288 289 289 289 288 288 288 288 288 288 288 287 287 287 287 286 286 286 286 285 285 284 284 284 283 283 283 282 282 282 281 281 281 280 280 279 279 278 278 277 276 276 275 275 275 275 275 274 274 274 274 275 275
298 298 297 296 295 295 296 295 295 295 295 294 294 294 293 293 293 292 292 292 292 292 292 292 291 291 290 290 289 289 289 288 288 289 288 288 288 288 288 288 288 288 287 287 287 286 286 286 286 286 285 285 284 284 284 283 283 282 282 282 281 281 281 280 280 279 279 279 278 278 278 277 276 276 275 275 275 274 274 273 273 273 273 273 274
299 299 298 297 296 295 294 294 294 294 293 293 293 293 292 292 292 292 291 291 291 291 291 291 291 291 290 290 289 289 289 289 289 289 289 289 289 288 288 288 288 287 287 287 287 286 286 286 286 285 285 285 284 284 283 283 282 282 282 281 281 280 280 280 279 279 278 278 278 277 277 276 276 276 275 275 274 274 273 272 272 273 272 272 273
300 300 299 299 299 295 292 293 293 293 293 292 292 292 292 292 291 291 291 291 291 291 291 291 290 290 290 289 289 289 289 289 289 289 289 289 289 288 288 288 287 287 287 287 287 286 286 286 285 285 285 284 284 283 283 282 281 281 281 281 280 280 279 279 279 278 278 277 277 276 276 276 275 275 275 274 274 273 273 272 272 272 272 272 272
300 300 300 300 300 295 292 293 293 293 293 292 292 292 291 291 291 291 291 291 290 290 290 290 290 290 290 289 289 289 289 289 289 289 289 289 288 288 288 287 287 287 287 287 286 286 286 285 285 285 285 284 284 283 282 282 281 281 281 280 280 279 279 278 278 278 277 277 277 276 275 275 275 274 274 274 273 273 272 272 271 272 271 271 271
300 300 301 300 298 294 293 293 293 293 293 292 292 291 291 291 291 291 290 290 290 290 290 290 289 289 289 289 289 289 289 289 289 289 289 289 288 288 288 287 287 287 287 286 286 285 285 285 285 285 284 284 283 283 282 281 281 280 280 279 279 279 278 278 277 277 277 276 276 275 275 275 274 274 274 273 273 272 272 272 271 271 271 271 270
300 299 301 300 296 292 293 293 293 293 293 292 292 291 291 291 290 291 290 290 290 290 289 289 289 289 288 288 288 288 288 288 288 288 288 288 288 288 287 287 287 287 286 286 285 285 285 285 284 284 284 283 283 282 282 281 280 280 279 279 278 278 278 277 277 276 276 276 275 275 275 274 274 274 273 273 273 272 272 272 271 271 271 271 270
300 300 300 299 295 292 292 292 293 293 292 292 292 291 291 291 290 290 290 290 290 289 289 289 289 288 288 288 288 288 288 288 288 288 288 288 287 287 287 287 286 286 285 285 284 284 284 284 283 283 283 283 282 282 281 280 280 279 279 279 278 278 277 277 276 276 275 275 275 275 274 274 274 273 273 272 272 272 272 271 271 271 271 271 271
300 299 299 298 294 290 291 292 292 292 292 292 292 291 291 290 290 290 289 290 289 289 289 288 288 288 288 288 288 288 288 288 288 288 287 287 287 287 286 286 285 284 284 284 283 283 283 283 283 282 282 282 281 281 280 280 279 279 279 278 278 277 277 276 276 275 275 274 274 274 274 274 273 273 272 272 272 272 271 271 271 270 270 270 270
303 301 300 300 294 289 290 291 291 291 291 291 291 290 290 290 290 289 289 289 289 288 288 288 288 288 288 288 288 288 288 287 287 287 287 286 286 286 285 284 284 283 283 283 282 282 282 282 282 282 281 281 280 280 279 279 279 278 278 278 277 277 276 276 275 275 274 274 274 273 273 273 273 272 272 272 271 271 271 271 270 270 270 269 269
301 301 300 299 294 289 289 290 290 291 290 290 290 290 289 289 289 289 288 288 288 288 288 287 287 287 287 287 287 287 287 287 287 286 286 286 285 284 284 283 283 282 282 282 281 281 281 281 281 281 280 280 279 279 279 278 278 278 277 277 276 276 275 275 275 274 274 274 273 273 273 273 272 272 272 271 271 271 270 270 270 270 270 269 269
299 298 297 297 292 289 290 290 290 290 290 290 289 289 289 289 289 288 288 287 287 287 287 287 287 287 287 287 286 286 286 286 286 285 285 284 284 283 282 282 281 280 280 280 280 280 280 280 280 280 279 279 279 278 278 278 278 277 277 277 276 275 275 275 274 274 273 273 273 273 272 272 272 272 271 271 270 270 270 270 270 269 269 269 269
297 296 295 295 291 289 289 290 289 289 289 289 289 289 289 288 288 288 287 287 287 286 286 286 286 286 286 285 285 285 284 284 284 283 283 282 282 281 280 280 279 279 279 279 279 279 279 279 279 279 279 278 278 278 277 277 277 277 276 276 275 275 274 274 274 273 273 273 272 272 272 272 272 271 271 271 270 270 270 270 269 269 269 269 269
294 294 294 293 289 288 289 289 289 289 288 288 288 288 288 288 287 287 287 286 286 286 285 285 285 284 284 284 283 283 283 282 282 281 280 280 280 279 279 278 278 278 278 278 278 278 278 278 278 278 278 277 277 277 277 276 276 276 276 275 275 274 274 274 273 273 273 272 272 272 272 272 271 271 271 271 270 270 270 269 269 269 269 269 268
291 292 293 290 288 288 288 288 287 288 288 287 287 287 287 287 286 286 286 285 285 284 284 283 283 282 282 282 282 281 281 280 279 279 279 278 278 278 277 277 277 277 277 277 277 277 278 278 277 277 277 277 277 276 276 276 275 275 275 274 274 274 274 273 273 273 273 272 272 272 272 272 271 271 271 270 270 270 270 269 269 269 268 268 268
289 290 291 291 290 289 287 287 287 287 287 287 286 286 286 286 285 285 285 284 284 283 282 282 281 281 280 280 280 279 279 279 278 278 278 277 277 277 276 276 276 276 276 276 277 277 277 277 277 277 276 276 276 276 275 275 274 274 274 274 274 273 273 273 273 273 272 272 272 272 272 271 271 271 270 270 270 270 269 269 269 269 268 268 268
288 288 289 290 290 289 287 287 287 287 286 286 285 285 285 284 284 284 284 283 282 282 281 280 280 279 279 279 278 278 278 277 277 277 277 276 276 276 276 276 275 276 276 276 276 276 276 276 276 276 275 275 275 275 274 274 274 274 273 273 273 273 273 273 272 272 272 272 272 272 271 271 271 271 270 270 270 270 269 269 269 268 268 268 268
288 288 288 289 289 289 288 287 287 287 286 286 285 284 284 283 283 283 282 282 281 281 280 279 279 278 278 278 277 277 277 277 276 276 276 276 275 275 275 275 275 275 275 275 275 275 275 274 274 274 274 274 274 274 273 273 273 273 273 273 273 272 272 272 272 272 272 272 272 271 271 271 271 271 270 270 270 270 269 269 269 268 268 268 267
287 288 288 288 288 288 288 287 287 287 286 286 285 284 284 283 282 282 281 281 281 280 279 278 278 277 277 277 277 277 277 276 276 276 275 275 275 275 275 275 274 274 274 274 274 274 274 273 273 273 273 273 273 273 273 273 273 273 272 272 272 272 272 272 272 272 272 272 271 271 271 271 271 270 270 270 270 269 269 269 268 268 268 267 267
286 287 288 288 288 287 287 287 287 287 286 285 285 284 283 283 282 281 281 280 280 279 278 278 277 277 277 277 277 276 276 276 275 275 275 275 274 274 274 274 274 274 274 273 273 273 273 273 273 273 273 273 273 273 273 273 273 272 272 272 272 272 272 272 272 272 271 271 271 271 271 271 270 270 270 270 269 269 269 269 268 268 268 267 267
286 287 287 287 287 287 287 287 287 287 286 286 285 284 284 283 282 281 280 280 279 278 278 277 277 277 276 276 276 276 275 275 275 275 274 274 274 274 274 274 274 273 273 273 273 273 273 273 273 272 272 272 272 272 272 272 272 272 272 272 272 272 272 272 271 271 271 271 271 271 270 270 270 270 269 269 269 269 269 268 268 268 268 267 267
286 286 287 287 286 286 286 286 286 286 286 286 285 285 284 283 282 281 280 279 279 278 277 277 277 277 276 275 275 275 275 275 275 274 274 274 274 274 273 273 273 273 273 273 272 272 272 272 272 272 272 272 272 272 272 272 272 272 272 272 272 272 271 271 271 271 271 271 271 270 270 270 270 269 269 269 269 269 268 268 268 268 267 267 267
286 286 286 286 286 286 286 285 285 285 285 285 285 285 284 283 283 282 281 279 278 278 277 277 277 276 276 275 275 275 275 274 274 274 274 273 273 273 273 273 273 273 273 272 272 272 272 272 272 272 272 272 272 272 272 272 272 272 272 272 271 271 271 271 271 271 270 270 270 270 270 270 269 269 269 269 268 268 268 268 267 267 267 267 267
286 286 286 286 286 285 285 285 284 284 284 284 285 284 284 284 284 283 281 279 278 277 277 277 276 276 275 275 275 274 274 274 273 273 273 273 273 272 272 272 272 272 272 271 271 271 271 271 271 271 271 272 272 272 271 271 271 272 272 272 272 271 271 271 270 270 270 270 269 269 269 269 269 269 268 268 268 268 268 267 267 267 267 267 267
285 285 285 285 286 285 285 284 283 283 283 284 284 284 284 285 285 283 280 279 278 277 277 276 276 276 275 275 274 274 274 273 273 273 272 272 272 272 272 272 271 271 270 270 270 270 270 271 271 271 271 271 271 271 271 271 271 271 272 272 272 271 271 271 270 270 270 269 269 269 269 269 269 268 268 268 268 268 267 267 267 267 267 267 267
284 284 284 285 285 284 284 284 283 283 283 283 283 283 283 284 284 282 280 279 278 277 276 276 276 275 275 274 274 273 273 272 272 272 271 271 271 271 271 271 271 270 270 269 270 270 270 270 270 270 270 270 270 270 270 270 270 270 271 271 271 271 271 270 270 270 270 269 269 269 269 268 268 268 268 268 267 267 267 267 267 267 267 267 266
282 283 283 284 284 283 283 283 282 282 282 282 282 283 283 283 283 282 280 279 277 277 276 276 275 275 274 274 274 273 272 272 271 271 271 271 270 270 270 270 270 270 269 269 269 269 269 269 269 269 269 269 269 269 269 268 269 269 270 270 270 270 270 270 270 270 269 269 269 269 268 268 268 268 267 267 267 267 267 267 267 267 267 267 266
282 282 282 282 282 282 282 282 282 282 282 282 282 282 282 281 281 280 279 278 277 276 276 275 275 275 274 274 273 273 272 271 271 271 270 270 270 270 270 270 270 269 268 268 268 268 269 269 268 268 268 268 268 268 268 268 268 269 270 270 270 270 270 269 269 269 269 269 268 268 268 268 268 267 267 267 267 268 267 267 267 267 266 266 266
282 282 281 281 281 281 281 281 281 280 280 280 281 281 281 280 280 279 278 277 276 276 276 275 275 275 274 273 273 272 272 271 271 271 270 270 270 270 269 269 269 269 268 268 268 268 268 268 268 268 267 267 268 268 267 267 268 269 269 269 269 269 269 269 268 268 268 268 268 268 268 268 267 267 267 267 268 268 268 268 268 267 267 267 267
281 281 281 280 280 281 280 279 279 279 279 280 280 281 280 279 279 279 277 276 276 276 276 275 275 274 274 273 272 272 272 271 271 270 270 270 269 269 269 269 269 268 268 268 268 267 267 267 267 267 267 266 267 267 266 266 267 268 269 269 269 269 268 268 268 267 267 267 267 267 267 267 267 267 267 267 268 268 268 268 268 268 268 268 267
280 280 280 280 280 279 278 278 278 279 279 279 280 280 279 279 279 278 277 276 276 276 276 275 275 274 273 273 272 272 272 271 271 270 270 270 269 269 269 268 268 268 267 267 267 267 267 267 267 266 266 266 266 266 266 266 266 267 268 268 268 268 268 267 267 267 266 266 266 266 266 266 267 267 267 268 268 268 268 268 268 268 268 267 267
279 279 279 279 278 278 278 278 278 278 278 278 279 279 278 278 278 277 276 276 276 275 275 274 274 273 273 272 272 272 272 271 271 271 270 269 269 269 268 268 268 267 267 267 267 267 266 266 266 266 266 265 265 266 266 265 265 266 267 268 268 268 268 267 267 267 266 266 266 266 265 265 266 266 267 267 268 269 269 269 269 269 268 268 268
278 279 278 278 277 277 277 277 276 276 277 277 278 277 277 278 277 276 276 276 275 274 274 274 273 273 273 272 272 272 271 271 271 270 270 269 269 268 268 268 267 267 267 266 266 266 266 266 265 265 265 265 265 265 265 265 265 265 267 267 268 268 268 268 267 267 266 266 266 265 265 265 265 266 266 267 267 268 268 269 269 269 269 269 269
278 278 277 277 277 276 276 275 275 275 276 276 276 276 276 276 276 275 275 274 274 273 273 273 273 272 272 272 271 271 271 271 270 270 269 269 268 268 267 267 267 266 266 266 265 265 265 265 265 264 264 265 264 264 264 265 265 265 265 266 267 267 268 268 268 267 267 267 266 266 266 266 266 266 267 267 268 268 268 268 269 269 269 269 269
278 277 277 276 276 275 275 274 274 275 275 275 275 274 275 275 275 274 274 273 273 273 273 272 272 272 271 271 271 271 270 270 270 269 268 268 268 267 267 266 266 266 265 265 265 264 264 264 264 264 264 264 264 264 264 265 265 264 264 265 266 267 267 268 268 268 268 267 267 267 267 267 267 267 268 268 268 269 269 269 269 269 269 269 269
277 277 276 276 275 274 274 274 274 274 274 274 274 273 273 273 273 273 273 273 273 272 272 271 271 271 271 271 270 270 269 269 269 268 268 267 267 266 266 265 265 265 265 264 264 263 263 263 263 263 263 264 264 264 264 265 265 264 264 264 264 266 266 267 267 267 267 267 267 267 267 267 268 268 268 268 268 268 268 268 268 268 267 267 267
277 276 276 275 274 274 273 273 273 273 273 273 273 273 272 273 273 273 272 272 272 271 271 270 270 270 270 270 269 269 268 268 268 267 267 267 266 266 265 265 265 264 264 264 263 263 262 262 262 262 263 263 263 263 264 264 264 264 264 264 264 264 265 265 265 266 266 265 266 266 266 266 266 266 267 266 266 266 266 266 266 265 265 265 265
276 276 275 274 274 273 273 273 272 272 272 273 272 272 272 272 272 272 272 271 271 271 270 270 269 269 269 269 268 268 267 267 267 266 266 266 266 265 265 264 264 263 263 263 262 262 261 261 261 261 262 262 262 263 263 264 264 263 264 264 264 264 264 264 264 264 264 264 264 264 264 264 264 264 264 264 264 264 264 264 264 264 264 264 264
276 275 274 274 273 273 272 272 272 271 272 272 272 272 271 271 271 271 271 271 270 270 270 269 269 269 268 268 268 267 267 266 266 266 266 265 265 265 264 264 264 263 263 262 262 262 261 261 261 261 261 261 262 263 263 264 264 264 264 264 264 264 264 264 264 265 265 265 264 264 264 264 264 264 264 264 264 264 264 264 264 264 264 264 264
275 274 274 273 273 272 271 271 271 271 271 271 271 271 271 271 271 270 270 270 270 270 269 269 268 268 267 267 267 267 266 266 265 265 265 265 265 265 264 264 264 264 264 263 263 262 262 262 262 262 262 261 261 263 264 265 265 265 265 265 265 265 266 265 265 266 266 265 264 264 264 264 263 263 263 263 263 264 264 264 264 264 264 264 263
275 274 273 273 272 271 270 270 270 270 270 270 270 270 270 270 270 270 270 270 269 269 268 268 267 267 267 266 266 266 265 265 265 265 264 264 264 264 264 264 264 264 264 263 263 263 263 263 262 262 263 262 263 264 266 266 266 266 266 266 266 266 266 266 266 267 266 265 264 263 263 263 262 262 262 262 262 263 263 263 263 263 263 263 263
274 273 273 272 272 271 270 269 269 269 269 269 269 269 269 269 269 269 269 269 268 268 267 267 267 267 266 266 266 265 265 265 264 264 264 263 263 263 263 263 263 263 263 263 263 264 264 264 264 264 264 264 265 266 266 266 266 267 267 267 267 267 267 267 267 266 265 264 263 263 263 263 262 262 262 262 262 262 262 262 262 262 262 262 262
Wind_Speed
19 24 28 30 32 32 32 33 34 35 37 38 40 41 41 41 40 40 40 39 39 38 37 36 35 34 34 34 34 32 30 30 29 28 27 27 26 25 24 23 22 21 21 20 18 18 17 16 16 16 16 16 17 17 16 15 13 12 11 11 12 13 14 13 12 11 12 10 9 9 12 13 10 7 6 6 8 8 6 4 3 2 5 6 6
12 17 23 28 30 31 32 33 34 35 36 39 41 43 42 42 42 41 41 41 41 40 39 39 39 39 37 37 35 33 32 32 31 30 29 28 27 26 26 25 24 23 23 22 20 19 18 17 17 16 16 17 17 17 16 15 14 13 12 12 13 13 14 13 11 10 7 5 5 7 10 9 3 3 3 2 4 4 1 2 4 3 3 4 4
11 14 19 26 30 32 32 33 36 38 38 39 41 42 42 42 42 42 42 43 42 42 42 41 41 40 38 37 36 34 33 33 32 30 29 29 28 28 27 27 26 25 25 23 22 21 19 18 17 16 16 17 17 17 17 16 15 15 14 13 13 13 14 12 11 10 6 4 4 3 4 3 2 4 2 3 5 6 5 6 6 6 6 4 2
14 13 15 22 27 30 32 33 35 36 37 40 41 41 43 44 43 43 44 44 43 43 42 42 40 38 37 35 34 33 32 32 31 30 30 29 29 28 29 29 28 27 26 25 24 22 21 19 18 17 17 17 17 18 18 17 17 16 15 14 15 15 14 12 11 10 9 7 3 1 0 1 1 4 4 1 2 3 5 7 7 7 6 4 3
15 15 13 16 23 29 34 35 35 35 38 41 43 44 44 45 45 45 45 44 44 43 43 42 39 37 35 31 30 31 29 29 31 32 32 30 30 30 29 29 28 27 26 25 24 23 21 20 19 18 17 17 18 18 18 18 17 17 16 16 17 17 15 12 11 10 9 9 6 3 0 1 2 1 4 5 4 2 1 3 4 5 4 2 2
13 15 14 16 22 29 33 35 36 37 40 42 44 46 45 45 46 45 45 44 44 44 44 43 41 40 37 34 32 32 30 31 35 37 36 34 33 31 30 29 28 28 27 26 25 24 22 21 20 19 18 18 18 18 18 18 18 17 17 17 18 18 17 14 13 11 9 10 9 7 5 3 3 0 2 2 5 5 4 1 1 3 5 5 5
12 13 14 16 21 25 28 34 37 39 42 43 42 44 44 44 45 45 45 44 44 44 44 44 43 42 41 40 37 36 34 36 39 39 38 37 35 32 30 30 29 28 28 27 26 24 23 21 20 19 19 18 18 18 19 19 19 18 17 17 18 18 18 17 16 14 11 10 10 9 9 8 6 4 3 1 3 5 6 5 6 7 7 7 5
12 13 14 16 20 24 28 35 40 42 42 41 41 43 45 44 45 45 45 44 44 44 44 45 44 43 43 42 40 39 38 38 38 38 37 36 34 32 31 31 30 29 28 28 26 25 24 22 21 20 19 19 19 19 19 19 18 18 17 17 18 18 18 19 18 17 15 11 10 9 9 8 8 8 7 6 3 2 6 10 11 10 8 7 5
12 13 14 15 19 27 33 36 39 41 40 41 44 45 45 44 43 44 44 44 44 45 45 46 46 45 43 42 40 39 39 37 35 35 34 33 32 32 31 31 30 30 29 28 27 26 25 23 22 22 22 21 21 21 20 19 19 19 19 18 18 18 18 18 18 18 18 15 12 10 9 8 9 8 9 9 7 4 4 6 8 10 9 8 6
11 13 13 16 23 31 34 34 36 39 40 42 44 43 43 43 41 42 45 45 45 46 46 47 46 45 44 43 41 39 38 35 32 32 32 31 31 31 31 30 30 30 30 28 27 26 25 24 24 24 23 22 22 22 21 20 19 19 20 19 19 18 18 19 19 18 18 16 15 12 10 10 9 8 8 9 8 6 4 4 6 6 7 10 10
10 11 11 15 23 27 28 29 33 37 39 38 39 40 41 42 42 43 44 45 45 46 47 47 47 46 46 45 44 42 40 37 33 33 34 33 33 32 31 31 31 31 30 28 27 26 25 25 24 23 23 22 22 22 21 20 19 19 19 19 18 18 19 19 19 18 17 16 16 14 13 13 12 11 11 10 9 7 4 4 6 6 7 11 13
9 9 9 11 14 17 21 27 31 32 33 36 39 40 40 42 42 42 42 43 44 46 47 48 48 48 47 46 45 44 42 41 38 37 37 36 35 33 31 30 30 29 29 29 28 27 26 25 25 24 24 24 24 23 22 21 19 19 19 19 18 18 19 19 19 19 18 17 15 14 15 15 15 13 13 11 10 9 6 5 6 6 6 9 13
8 8 9 9 9 12 18 25 27 29 33 37 39 39 39 41 42 42 43 44 44 45 47 47 48 48 48 47 46 45 43 42 41 40 38 38 36 35 33 32 31 30 29 30 29 28 27 27 26 26 26 26 25 25 24 22 20 20 20 20 19 19 20 20 19 19 18 17 15 14 15 15 15 14 13 12 11 10 8 7 7 6 5 7 11
8 8 8 9 9 12 18 24 27 29 34 37 37 38 39 40 41 43 44 44 44 45 46 47 48 48 48 47 46 45 44 43 42 41 39 38 38 37 36 34 33 32 31 30 29 28 28 28 28 27 27 27 26 26 25 23 21 21 21 21 21 21 20 20 19 19 18 17 15 16 16 16 15 14 14 13 12 11 10 8 6 5 6 7 8
7 8 8 9 11 14 18 22 26 30 34 35 36 37 38 39 41 43 43 44 45 45 46 47 48 47 47 46 45 45 44 43 42 40 39 39 38 37 36 34 33 32 30 29 28 28 28 28 28 28 28 28 28 27 25 23 22 22 22 21 21 20 20 20 19 19 18 17 17 17 18 17 17 16 15 14 13 13 12 10 7 4 4 5 5
6 7 8 8 9 13 17 20 25 29 30 33 35 37 39 40 41 43 44 44 45 45 46 46 46 45 45 45 45 44 43 42 41 39 39 39 38 37 35 34 32 30 29 29 28 28 28 28 27 27 28 29 29 28 26 24 24 23 22 21 21 20 20 19 19 19 19 18 18 19 19 19 18 17 16 15 14 13 13 12 10 8 5 2 2
5 6 6 6 6 10 15 18 22 25 27 32 36 39 41 41 40 41 41 40 42 44 45 44 43 43 44 44 44 44 43 42 41 40 39 38 36 35 34 32 31 30 29 29 28 28 28 27 27 27 29 30 30 29 27 26 25 24 23 22 21 21 20 20 20 20 20 19 20 20 20 20 19 18 17 16 15 15 14 13 13 12 10 5 2
5 5 5 5 5 8 12 16 19 22 25 29 31 33 35 36 37 38 39 40 42 43 43 42 42 42 43 43 43 43 42 41 40 39 38 37 35 34 33 32 31 30 30 29 28 27 26 26 26 27 29 30 30 29 28 27 26 25 24 23 22 21 21 20 21 21 21 21 21 21 20 20 19 19 18 17 17 16 16 15 14 13 12 10 8
6 5 5 5 5 7 11 14 17 19 21 23 25 26 29 31 33 35 37 38 39 40 40 41 41 41 42 42 41 40 40 39 38 38 37 36 35 34 33 32 31 30 29 28 28 27 26 25 26 27 29 30 30 30 29 27 26 25 24 23 22 21 21 21 21 21 22 22 22 22 21 21 20 19 18 18 17 17 16 16 15 14 13 13 13
6 6 6 6 6 8 10 12 15 17 18 20 21 24 26 28 29 31 33 34 34 37 38 39 40 40 39 39 39 38 38 38 37 37 37 36 35 34 33 32 31 30 29 28 28 27 26 26 26 27 29 30 30 29 29 27 26 25 24 23 22 22 22 22 22 22 22 22 23 23 22 22 21 20 19 18 17 17 16 16 16 16 15 15 15
7 6 6 6 7 9 9 10 12 14 16 18 20 23 25 26 28 29 30 31 33 35 37 37 38 38 38 38 38 38 37 37 36 36 36 35 34 33 32 31 30 29 29 28 27 26 26 26 27 28 29 30 29 29 28 27 26 25 24 23 22 22 22 23 23 23 23 23 23 23 23 22 21 20 19 18 18 17 17 17 17 17 18 18 17
8 7 7 6 6 8 8 9 11 14 16 19 20 22 24 26 28 28 29 30 32 34 34 35 35 36 36 37 37 37 36 36 35 35 34 34 33 32 31 30 29 28 28 28 27 27 26 26 27 28 29 29 28 28 27 26 25 25 24 23 23 23 24 23 23 24 24 23 23 23 23 22 21 21 20 19 19 19 18 19 19 19 20 20 19
10 9 8 6 7 8 9 10 12 15 17 19 21 23 25 26 27 28 29 30 31 32 32 32 33 34 34 35 35 36 35 35 34 34 33 32 31 31 30 29 28 28 27 27 27 26 26 27 27 27 27 27 27 26 26 25 25 24 24 24 24 25 25 25 25 25 25 24 24 23 23 23 22 22 22 21 21 21 21 21 21 21 21 20 19
13 12 9 8 9 9 8 9 12 14 16 18 20 22 23 24 26 28 29 29 29 30 30 31 32 32 32 33 34 34 34 34 33 33 32 31 31 30 29 28 28 28 27 26 26 26 26 27 27 27 26 26 25 25 24 24 24 24 24 25 25 25 26 26 26 25 25 25 25 25 24 23 23 24 24 24 23 23 23 23 23 22 21 21 21
16 15 14 12 10 9 9 12 13 15 16 18 19 21 22 24 25 27 28 28 29 29 30 31 31 31 31 32 33 33 33 33 33 32 31 31 30 30 29 28 28 28 28 27 26 26 26 27 27 27 26 25 25 24 24 24 24 23 24 24 25 25 25 26 26 25 25 25 26 26 25 24 24 25 25 26 26 25 25 25 24 24 23 23 22
16 16 15 13 11 10 11 14 16 17 16 16 17 19 21 22 24 26 27 28 29 30 30 31 31 31 32 32 32 33 32 32 32 31 31 30 30 30 29 29 28 28 28 27 26 26 27 27 27 26 26 25 24 24 24 24 23 23 23 23 24 24 24 25 25 25 25 25 26 26 26 25 26 27 27 27 27 27 27 27 26 26 25 25 24
15 15 15 14 14 13 15 17 17 17 16 16 17 18 20 22 23 25 26 28 29 30 31 32 32 32 32 33 33 33 33 32 31 30 30 30 30 30 29 29 28 28 28 26 26 26 26 26 26 26 25 25 24 24 23 23 23 23 23 23 24 24 24 24 24 24 24 25 25 26 26 26 27 28 28 28 28 28 29 29 28 27 26 25 25
16 16 16 16 15 15 18 22 22 17 16 17 18 19 21 23 24 25 27 29 30 31 32 32 32 32 33 34 34 34 33 32 31 30 30 30 30 30 29 28 28 28 27 26 25 25 25 25 25 25 24 24 24 24 23 23 23 23 22 22 23 23 24 24 24 25 25 25 26 26 26 27 27 28 28 28 29 29 29 29 29 28 27 26 26
18 17 16 15 16 16 18 24 28 25 20 17 18 20 22 24 25 26 28 30 30 31 32 32 33 33 34 35 34 33 33 32 31 31 30 31 31 30 29 29 28 28 26 24 24 24 24 24 24 24 23 23 24 24 24 24 24 23 23 23 23 23 24 25 25 26 26 27 27 27 27 27 28 28 28 28 28 28 29 29 29 28 27 27 26
17 16 15 14 15 16 18 23 28 30 29 24 21 23 24 25 26 27 29 30 31 31 32 33 34 35 34 33 33 33 32 32 32 32 31 31 31 30 30 30 29 27 24 24 24 25 25 25 24 24 23 23 23 24 24 24 24 24 23 23 24 24 25 26 26 27 28 29 28 28 28 28 28 28 28 28 28 27 28 29 29 28 28 28 28
17 16 14 14 15 15 17 21 25 29 32 30 28 27 27 26 26 29 31 31 31 32 33 34 35 34 33 33 33 33 33 33 33 33 32 32 31 31 31 30 29 27 24 24 25 26 26 26 25 25 24 24 24 24 23 23 22 22 23 24 24 25 25 26 27 28 29 29 29 29 29 29 29 29 29 29 28 28 29 29 29 29 29 29 29
17 16 15 16 16 15 15 19 25 29 31 32 32 31 28 27 29 32 32 30 31 33 34 34 34 32 32 33 34 34 34 34 33 33 32 32 31 31 31 30 29 27 25 24 26 27 28 27 26 25 25 25 25 24 24 23 21 20 21 23 24 24 25 26 27 28 29 29 29 29 30 30 30 30 30 30 30 30 30 30 30 30 30 31 31
15 15 16 17 16 15 17 21 26 28 30 32 34 33 30 29 31 32 30 30 32 34 34 33 33 32 33 34 34 34 34 33 33 32 32 31 31 31 31 31 29 27 25 25 26 28 28 27 27 26 26 26 26 25 25 23 21 20 20 22 23 24 25 27 28 28 29 29 29 30 30 31 31 31 30 30 31 32 32 31 31 31 31 32 31
14 15 16 16 17 21 24 26 28 31 33 33 34 35 34 34 32 29 29 31 33 34 33 33 32 32 33 33 33 33 33 32 32 31 31 31 31 31 31 30 28 26 25 27 28 28 28 28 27 27 27 27 27 26 26 24 21 21 21 22 24 24 25 27 29 29 29 30 30 30 31 32 32 32 32 32 32 33 32 33 33 32 32 33 31
17 17 17 18 21 26 29 31 33 35 35 35 34 35 36 35 31 28 29 32 33 33 32 32 31 31 32 32 32 32 31 31 30 30 30 30 30 30 29 28 27 26 27 28 29 29 28 28 28 27 27 28 28 27 27 25 23 21 21 22 23 24 25 26 28 29 30 30 31 31 32 33 33 33 33 33 33 33 33 33 34 34 35 35 35
16 18 21 24 26 28 30 33 35 36 35 35 36 36 36 35 30 27 28 30 31 31 31 31 30 31 32 33 33 32 30 30 29 29 29 29 29 29 29 28 26 26 27 29 29 29 29 28 28 27 27 28 29 28 26 25 22 20 20 21 23 24 24 25 26 28 28 29 29 30 31 31 31 31 32 31 29 29 30 31 33 34 34 35 36
21 24 26 29 32 34 35 35 35 35 35 35 36 36 35 33 28 25 26 28 29 29 29 30 30 31 32 32 32 31 30 29 29 29 29 29 29 29 28 28 27 27 28 29 29 29 28 28 27 27 27 28 28 27 25 22 20 19 20 21 23 24 25 25 26 27 27 28 29 29 29 29 30 30 30 28 26 26 28 29 30 32 32 33 34
26 28 29 33 36 37 36 35 35 37 38 36 35 35 33 30 27 25 25 26 27 28 28 29 31 31 31 31 31 31 30 29 29 29 29 28 28 28 28 28 28 28 28 29 29 28 27 27 27 27 26 27 27 26 24 21 19 19 20 21 22 24 24 25 25 26 27 28 29 30 29 29 31 32 30 28 26 27 28 29 28 29 29 30 30
28 28 30 35 38 37 37 39 38 39 42 40 37 35 31 27 26 25 23 24 26 28 29 30 30 29 29 29 29 29 29 29 29 29 28 28 27 27 27 27 27 27 28 28 28 27 27 26 26 26 25 25 25 25 23 21 19 18 20 21 22 23 24 24 25 26 26 28 29 29 29 29 30 30 29 28 27 28 30 30 30 30 31 32 33
28 30 32 33 35 36 38 40 39 40 43 43 39 35 29 26 26 22 21 24 27 28 26 25 25 25 26 27 27 28 28 28 28 27 27 26 26 25 26 26 26 27 27 27 26 26 26 26 26 25 25 25 25 25 24 22 20 19 20 22 23 23 24 24 25 26 26 27 28 29 30 30 28 28 27 27 28 28 29 31 32 32 35 37 36
32 33 31 30 34 37 37 37 38 40 42 42 38 32 28 26 23 20 21 24 23 21 20 20 22 23 24 25 26 27 27 26 26 26 25 25 25 25 25 26 26 26 26 26 25 25 25 25 25 25 25 25 25 26 25 23 21 21 21 22 23 24 24 24 25 25 25 26 27 28 30 29 28 27 27 27 27 28 29 31 32 32 34 35 33
35 32 30 31 34 35 34 35 38 39 39 39 35 29 27 25 21 19 19 18 15 16 17 19 20 21 22 24 25 25 25 25 24 24 24 24 24 25 25 25 25 26 25 25 24 24 24 24 24 25 25 26 26 26 26 24 23 22 22 22 24 24 24 24 25 26 26 27 27 27 28 29 27 26 26 27 27 27 28 30 31 30 31 31 30
31 28 31 34 31 31 33 35 36 36 36 35 31 26 24 22 18 16 13 11 12 14 15 17 18 20 21 22 23 23 23 23 23 23 23 23 23 24 24 24 25 25 24 24 24 23 23 23 24 25 26 27 27 27 26 26 25 24 23 23 24 25 24 24 26 26 26 27 28 27 28 28 26 25 26 26 27 27 28 30 30 30 30 29 29
28 28 33 32 28 30 34 35 34 34 33 31 27 22 21 19 15 12 10 9 10 12 14 17 18 19 20 20 20 21 21 21 22 22 22 22 23 23 23 24 24 24 23 23 23 22 22 22 24 26 27 28 29 28 27 26 26 26 25 24 24 25 24 25 26 26 25 25 25 25 25 24 23 24 24 25 25 26 26 27 26 25 24 23 23
28 29 31 29 28 30 31 32 33 32 31 29 24 19 18 17 13 10 9 9 11 12 15 16 17 18 19 19 19 19 19 20 21 21 22 23 23 23 23 23 23 23 23 23 22 21 21 22 23 26 28 29 28 28 27 26 25 25 24 22 22 23 22 22 24 24 23 22 21 19 20 20 20 21 22 22 23 23 23 23 23 22 21 21 22
28 26 27 28 29 27 26 27 31 31 30 28 24 19 17 16 13 11 10 10 11 13 14 15 16 17 17 17 17 17 18 19 20 21 22 23 23 23 23 23 23 23 23 23 21 21 21 22 24 26 28 29 27 26 26 25 23 22 21 19 20 21 21 21 22 23 24 24 23 21 22 22 23 24 25 25 26 27 27 27 28 27 27 28 27
28 24 25 27 25 22 22 24 26 29 29 28 25 21 17 16 14 12 10 10 10 12 13 14 15 15 15 15 16 17 18 19 19 20 21 22 22 23 23 23 23 23 23 22 21 21 21 22 23 26 27 27 26 25 25 25 23 21 19 18 18 18 18 19 20 21 22 23 23 22 22 23 23 24 24 25 26 26 27 28 28 27 27 28 28
29 23 25 26 22 20 21 21 23 26 27 27 25 21 18 16 14 12 10 9 10 11 12 13 13 13 14 15 16 17 18 19 20 20 21 21 22 22 23 24 25 25 24 23 23 23 24 24 24 24 24 23 24 26 25 24 21 18 17 17 17 17 17 17 18 18 18 18 19 19 20 21 22 23 24 25 26 26 27 28 28 27 27 28 28
26 24 26 26 22 21 21 21 23 25 26 26 25 22 19 17 15 13 11 10 11 11 11 11 11 12 13 14 16 17 18 18 19 20 21 22 22 23 24 25 26 25 25 24 24 25 26 26 25 24 23 22 24 25 22 18 16 16 16 17 18 17 17 18 17 17 19 20 21 22 23 23 24 25 25 26 27 28 28 29 29 29 29 30 30
24 25 27 25 22 21 22 22 23 24 24 25 24 23 21 18 16 14 12 11 11 11 10 10 10 12 13 14 15 16 17 18 19 19 20 20 21 22 23 23 24 24 24 24 24 25 26 25 25 25 24 22 23 21 18 16 17 19 20 21 22 22 22 22 21 21 22 23 22 21 22 23 23 23 24 24 25 26 27 27 28 28 28 29 29
26 25 24 22 22 22 21 22 23 23 23 23 23 23 21 19 17 15 13 12 12 11 10 11 12 13 14 15 16 17 17 18 18 18 18 18 18 19 21 21 21 22 22 22 22 23 24 24 24 25 24 23 23 23 22 21 21 20 20 20 21 21 22 23 23 24 24 24 22 21 21 21 22 22 23 23 24 24 24 24 24 24 25 25 26
Wind_Direction
222 219 219 216 215 214 212 209 206 206 206 205 204 204 205 204 203 203 205 205 204 203 202 201 199 198 198 200 203 204 204 207 210 214 216 218 220 222 224 226 228 229 229 229 227 224 222 223 223 224 229 234 238 243 247 251 254 255 256 254 254 253 256 257 263 284 296 294 296 299 304 304 305 309 315 317 304 298 297 256 214 241 250 253 266
221 218 217 215 215 214 213 212 210 208 206 204 204 205 205 206 206 205 205 205 206 205 203 203 203 202 201 202 204 204 205 208 211 213 215 218 221 224 226 227 228 228 229 230 229 227 226 225 224 226 232 237 241 245 247 249 249 249 250 248 247 246 248 250 259 278 283 280 302 315 316 314 303 318 329 352 354 349 317 176 149 155 197 219 251
216 215 212 210 211 210 210 211 211 212 210 208 208 206 205 205 206 205 205 206 207 207 205 205 206 206 206 207 207 207 209 212 215 217 218 220 223 226 227 227 228 229 229 230 230 229 229 228 228 232 238 239 240 241 242 243 244 245 247 245 243 241 239 243 255 262 251 261 302 309 318 345 337 328 351 105 66 62 89 108 124 136 141 146 169
216 215 210 207 208 208 209 209 209 209 209 209 208 206 205 205 205 205 206 207 207 208 207 206 206 206 208 210 210 210 212 215 217 220 221 223 225 225 226 226 227 228 229 229 229 229 229 230 232 236 239 238 237 238 239 241 242 243 245 242 238 234 234 242 250 249 240 243 250 190 63 52 284 332 3 353 20 60 85 91 105 114 118 124 109
215 214 208 203 205 207 209 209 207 206 207 207 206 205 205 205 206 205 206 208 209 208 208 206 204 203 203 205 206 208 211 212 213 217 219 222 224 221 220 220 222 225 227 228 228 228 229 231 234 236 236 235 234 236 238 240 241 243 244 241 237 234 236 242 241 238 234 227 216 197 358 29 215 347 2 304 287 290 41 73 94 95 82 52 36
215 214 207 202 205 206 208 207 206 207 208 208 206 206 206 206 206 206 207 209 210 210 208 206 204 203 201 199 200 202 205 209 212 215 216 217 217 215 214 216 218 222 223 225 226 227 229 232 235 235 234 233 232 234 237 238 239 240 241 240 238 237 239 237 229 225 221 220 221 222 230 236 224 172 47 315 301 293 270 253 12 1 346 341 349
215 214 207 205 206 203 206 206 205 208 210 208 207 206 207 208 208 207 208 209 211 210 208 206 205 205 204 204 204 204 206 211 215 217 217 214 213 212 213 214 216 219 221 223 224 226 230 233 235 235 234 233 233 234 235 237 239 239 240 239 238 237 234 230 225 220 214 217 226 228 231 238 239 230 192 192 312 290 256 257 300 324 327 327 336
210 212 208 206 205 203 205 207 207 209 209 207 206 207 208 209 209 209 209 210 210 210 208 207 206 206 207 207 208 209 211 214 215 216 216 214 214 214 214 214 216 219 220 222 223 227 231 232 232 232 233 233 234 234 235 236 238 239 239 237 236 234 232 231 228 222 218 220 222 223 230 238 238 234 227 218 199 256 275 279 291 302 309 315 318
211 213 211 207 205 207 209 208 209 209 208 207 208 209 209 209 210 210 209 209 210 209 208 208 208 208 208 208 210 212 214 215 214 213 212 212 213 213 213 213 215 217 219 221 223 227 229 229 229 230 231 232 232 233 233 233 234 237 238 236 234 233 232 232 229 225 224 226 223 222 230 234 235 233 228 219 205 210 266 280 292 299 299 295 288
218 216 213 209 208 210 211 209 209 209 209 209 209 209 209 208 209 209 210 210 209 208 208 208 208 209 209 209 211 212 212 212 210 209 208 208 208 209 211 212 214 216 218 220 222 224 225 226 227 229 230 230 231 231 230 229 231 235 236 235 234 233 230 227 227 228 228 229 228 230 233 227 223 222 214 211 209 213 228 253 280 298 297 286 282
220 218 216 215 214 214 211 209 210 210 209 209 209 209 209 208 207 209 210 209 209 208 208 208 208 209 211 211 211 211 209 207 205 204 204 205 208 210 213 215 216 216 216 216 218 221 222 225 227 229 231 231 231 230 229 229 231 233 232 231 230 229 226 223 224 226 226 227 231 237 238 229 223 224 219 213 209 210 211 230 251 270 287 285 287
216 216 217 212 211 210 207 209 211 208 207 207 208 208 208 208 207 208 209 209 209 209 209 209 209 210 212 212 212 211 209 206 204 205 205 207 210 211 211 211 211 211 212 213 215 218 220 223 226 228 230 230 230 230 229 229 231 230 228 226 225 223 222 221 220 221 222 225 231 236 237 233 231 230 226 221 220 221 219 218 237 259 274 277 285
216 215 214 202 199 201 202 207 208 205 206 207 208 207 207 208 207 208 209 209 209 210 210 210 210 211 212 212 212 212 210 208 207 208 208 209 209 208 205 203 204 206 209 212 215 217 219 222 225 227 228 228 229 228 226 226 227 225 223 222 221 220 219 220 221 223 227 230 233 234 232 232 232 231 229 229 230 227 221 222 237 245 246 266 285
220 216 211 203 203 203 203 205 204 205 208 208 207 207 207 207 208 209 211 210 210 210 210 211 211 212 212 212 212 211 210 210 210 210 210 210 208 206 204 204 205 208 211 214 216 217 220 223 225 227 227 227 226 225 223 223 222 220 219 218 218 218 219 220 224 227 230 233 235 234 232 231 231 232 235 236 232 227 222 221 228 241 255 266 277
224 217 213 213 209 207 206 206 206 208 209 208 207 207 207 208 209 210 211 211 210 211 211 211 212 213 212 212 211 211 211 211 211 213 212 210 208 206 207 208 210 213 215 217 218 217 219 222 223 225 225 224 222 221 220 219 218 215 215 216 216 218 219 221 225 227 227 228 229 230 230 230 233 238 241 238 233 232 234 234 227 226 267 272 260
231 221 221 224 215 209 210 210 211 212 210 208 208 207 207 209 210 211 211 211 210 210 211 212 212 212 212 211 211 211 212 212 212 213 213 211 209 208 210 212 213 215 215 216 215 216 218 219 219 220 220 220 218 217 217 216 214 213 213 215 216 216 218 221 224 225 226 226 226 227 228 230 236 239 237 235 236 240 243 245 236 219 219 244 275
255 240 241 239 221 214 215 216 216 215 213 211 211 210 210 210 210 210 211 210 210 210 211 211 211 211 211 211 211 212 212 213 213 212 211 210 210 210 211 211 212 213 213 213 214 216 217 218 217 215 215 215 214 214 215 214 214 215 216 217 217 217 219 222 223 223 224 225 226 227 229 232 235 235 234 236 242 245 244 244 242 233 222 210 223
284 272 273 266 240 223 220 221 222 220 219 218 216 215 213 212 211 210 209 209 210 209 209 209 208 208 209 209 210 212 212 213 213 211 208 206 206 207 209 209 210 211 212 213 215 215 215 215 215 213 211 211 210 210 211 212 214 216 218 219 219 219 220 221 222 222 221 221 222 224 227 230 231 231 235 240 242 244 243 241 240 239 235 223 218
304 301 293 275 254 235 224 223 224 223 223 223 221 218 216 215 214 212 210 210 209 207 206 207 207 207 208 208 209 210 211 211 209 207 205 203 204 205 207 209 209 211 212 213 214 213 212 212 211 210 208 206 207 208 208 210 213 214 215 215 217 218 218 218 218 218 218 218 219 221 223 226 228 231 236 239 239 239 239 238 238 238 240 239 233
303 302 294 283 271 256 239 230 227 223 222 222 219 217 215 214 213 211 211 209 207 206 206 206 207 207 208 208 208 209 208 207 205 204 203 204 205 206 207 209 209 210 212 213 214 213 211 210 207 206 204 203 204 205 207 208 210 212 214 215 216 217 217 216 215 214 216 218 219 221 223 226 230 233 234 235 235 235 235 235 239 240 240 245 245
308 298 291 288 288 281 264 245 235 226 222 219 217 216 214 213 212 210 209 208 206 206 206 206 206 206 207 207 206 206 205 205 204 204 204 205 206 207 208 210 210 211 212 213 213 212 210 207 205 203 203 202 202 203 205 207 209 211 215 217 218 217 216 215 213 212 214 217 219 221 225 230 232 233 233 234 234 233 234 235 237 241 242 245 248
316 311 303 296 294 286 268 248 235 224 220 218 215 215 213 213 213 211 210 209 207 207 206 206 206 206 206 206 204 203 202 202 202 202 204 205 206 208 210 210 211 212 213 213 211 209 208 206 204 203 203 203 203 204 205 207 210 212 214 216 218 216 215 213 212 212 213 215 219 222 227 231 232 233 234 235 236 235 235 237 239 242 245 247 249
328 322 315 308 302 287 264 246 236 228 224 220 216 215 214 214 212 211 211 211 210 208 207 206 206 205 205 204 202 201 200 201 201 202 204 205 207 209 210 211 211 211 211 211 209 206 205 205 204 203 203 204 205 206 208 210 212 214 214 215 215 215 214 213 212 214 215 216 218 222 226 228 229 230 233 235 236 236 236 238 242 244 247 250 251
355 347 339 330 322 312 289 265 251 240 232 226 221 219 217 216 214 213 213 212 210 209 208 206 205 204 203 202 201 200 200 201 202 204 205 206 208 209 210 210 210 209 207 206 205 205 205 205 205 205 205 206 207 208 210 213 215 217 216 214 213 213 214 215 217 218 218 219 221 223 226 226 225 227 230 233 233 234 236 238 242 244 245 248 251
7 3 360 351 340 328 307 290 274 259 246 236 228 224 221 218 217 215 214 213 211 209 208 206 204 203 202 202 201 201 202 202 204 205 206 207 208 209 209 208 208 207 205 203 203 204 205 207 208 209 209 210 212 213 213 215 216 217 217 215 213 212 214 216 219 220 221 222 224 226 228 227 227 227 229 232 232 234 237 238 241 243 244 247 251
6 3 2 356 348 335 315 302 288 277 268 254 241 232 227 224 221 219 215 213 210 209 207 205 203 202 202 202 201 202 203 204 205 206 206 208 209 208 208 208 208 207 206 205 204 205 208 210 212 213 214 214 214 215 215 214 214 214 213 213 213 214 215 217 219 221 223 225 226 229 230 230 230 231 232 234 235 236 237 238 240 242 245 247 249
2 0 358 356 354 348 340 329 308 288 277 267 253 242 234 229 225 222 217 214 211 208 206 205 203 203 203 202 202 204 205 205 207 207 208 209 209 208 208 208 209 209 207 206 206 208 210 212 214 214 214 213 212 212 212 211 211 211 212 213 215 216 218 220 222 223 225 228 230 231 233 233 234 235 236 237 238 239 240 241 242 244 245 247 248
360 357 355 354 353 352 351 347 336 314 286 267 255 247 240 234 230 225 219 216 212 208 206 205 204 204 204 204 204 205 206 206 207 208 209 210 209 209 210 210 210 210 209 208 208 209 209 210 211 211 209 208 208 208 209 210 210 211 213 215 217 219 221 223 225 227 228 230 233 234 235 237 239 240 241 241 241 241 241 242 244 245 245 245 245
355 351 350 351 352 353 350 347 345 337 318 289 264 251 245 238 234 228 223 219 214 210 208 205 205 206 206 205 204 205 206 206 207 209 210 210 210 210 211 211 212 211 210 210 209 208 206 205 206 207 207 207 207 209 210 210 211 212 214 219 221 223 225 226 227 229 231 233 234 236 237 238 240 241 242 243 243 243 243 244 245 244 243 243 243
350 345 344 347 348 347 346 344 344 340 333 317 290 268 254 245 238 232 227 222 215 211 209 207 207 208 207 205 204 204 205 205 207 210 211 211 211 211 210 211 212 211 209 208 207 207 207 206 206 206 207 208 210 212 212 213 214 216 219 222 225 227 227 228 229 229 230 232 234 236 238 239 240 241 242 243 244 245 246 247 248 248 246 245 244
344 340 339 342 342 340 342 344 340 336 332 326 310 289 269 256 246 238 232 225 217 213 212 210 210 209 206 204 203 204 205 206 208 209 210 210 210 210 210 210 211 210 208 208 208 208 209 210 210 209 209 210 212 213 214 215 217 220 223 224 224 225 227 228 230 231 232 234 234 236 238 239 240 242 243 244 245 246 247 248 249 251 251 250 249
338 336 337 338 337 335 337 338 336 332 327 325 320 304 281 264 257 248 237 227 218 215 214 213 212 209 206 204 203 203 205 206 207 208 208 209 209 208 209 209 210 210 210 210 211 212 212 212 212 212 212 213 214 215 216 216 216 218 224 228 228 228 229 231 232 234 235 236 236 237 238 239 240 242 243 244 246 247 248 249 251 253 255 256 255
331 333 335 332 328 328 330 330 329 327 322 320 320 312 294 279 272 259 241 227 220 217 216 215 212 209 206 205 204 203 204 205 206 207 207 207 207 207 208 209 210 212 213 213 213 213 212 211 211 212 213 214 215 216 217 217 218 221 226 231 234 235 236 237 238 238 239 239 239 240 241 242 243 245 246 248 249 251 253 254 255 256 257 257 254
332 331 330 327 325 326 327 326 324 323 320 317 316 314 305 295 284 265 243 228 222 218 216 214 211 209 206 204 204 203 204 204 204 204 205 205 206 207 209 211 212 213 213 213 212 211 211 212 213 213 214 217 218 220 221 222 225 229 231 234 238 241 241 242 243 243 244 244 245 245 247 248 249 250 251 253 254 256 257 257 257 255 254 253 250
335 330 329 327 328 327 325 324 323 321 319 317 314 314 309 300 287 265 243 230 222 217 215 213 210 207 205 204 203 203 203 202 202 202 203 205 206 209 211 213 215 216 215 213 212 212 213 214 216 218 220 223 225 226 229 230 232 234 235 237 240 242 242 243 243 244 245 246 247 249 250 252 253 253 254 255 256 257 258 258 257 256 255 254 251
330 327 326 325 325 324 320 319 319 317 317 315 312 312 310 302 287 263 243 229 220 216 214 211 208 206 205 204 203 202 201 200 200 200 203 206 208 210 212 214 216 217 216 214 214 216 217 218 219 222 225 228 231 232 234 235 235 236 238 239 240 241 242 241 241 242 243 244 246 247 248 249 250 251 253 254 254 255 255 254 255 256 257 256 255
324 322 321 321 321 319 317 315 314 314 314 311 310 311 308 298 282 261 242 228 219 216 214 210 208 207 205 204 202 200 199 198 199 201 204 207 209 211 213 214 215 214 213 215 216 218 220 222 224 226 229 233 234 234 233 233 235 238 239 240 241 242 243 242 242 242 242 243 244 244 245 247 248 249 251 251 250 250 251 251 251 253 254 254 255
322 320 322 323 320 317 316 316 316 314 313 312 311 310 305 292 276 258 240 226 219 217 215 211 210 208 205 203 201 200 198 198 200 203 206 208 210 212 213 215 216 215 214 216 219 221 223 225 228 231 234 236 237 236 234 235 237 239 239 240 242 243 243 243 243 243 242 243 244 244 244 245 248 250 251 250 249 250 251 251 251 253 253 252 254
321 321 324 323 321 321 322 321 319 316 316 317 315 310 303 289 273 258 239 226 222 221 217 214 211 207 204 201 200 199 200 201 202 205 208 209 211 213 214 216 217 217 217 218 220 222 225 228 232 235 236 237 240 242 241 239 239 241 241 242 244 245 244 244 244 244 244 244 245 245 244 244 247 250 251 250 250 250 251 252 253 255 256 255 256
322 323 324 324 324 325 323 320 318 317 317 318 316 311 302 288 275 259 239 230 229 225 219 214 209 204 201 200 200 200 202 203 205 208 210 212 213 213 214 216 217 217 218 220 221 224 228 232 235 237 238 239 242 244 245 242 241 243 244 244 245 245 243 243 244 244 245 246 247 247 247 247 248 251 252 252 252 252 251 252 252 251 253 256 259
322 322 326 329 327 323 319 317 317 318 318 317 315 309 299 289 278 260 243 239 235 226 217 210 204 200 199 200 202 203 205 207 209 211 212 213 214 215 215 216 217 216 217 220 223 226 230 234 237 239 241 243 244 246 249 247 245 245 246 245 246 245 244 244 244 244 244 246 247 249 251 251 251 252 253 254 254 254 254 255 253 250 253 258 261
321 323 330 332 325 321 320 318 319 320 319 319 316 308 297 290 280 263 254 249 235 219 211 204 199 198 200 201 203 205 207 209 211 212 213 214 215 216 218 218 217 216 217 219 223 226 229 234 238 241 243 245 245 247 250 251 248 246 247 247 247 247 246 246 246 245 244 246 249 250 253 256 256 254 254 254 255 255 255 256 257 257 259 262 263
319 325 332 329 323 321 320 318 319 321 322 321 318 307 297 293 284 272 265 249 226 214 206 200 199 199 200 202 204 206 209 211 214 215 216 216 215 216 217 217 216 215 216 218 222 225 229 234 239 242 244 246 247 248 250 253 253 251 250 250 252 251 250 247 247 246 246 249 252 253 255 258 257 254 254 255 255 256 256 256 258 259 262 264 265
316 324 328 325 322 321 320 319 321 323 324 325 320 308 301 299 292 281 268 242 224 213 204 201 200 199 200 202 205 209 212 215 217 218 216 216 216 215 214 215 215 214 214 218 222 225 227 232 238 243 245 247 249 250 252 255 257 257 256 255 255 254 251 249 249 250 250 249 250 251 253 255 254 253 255 256 257 257 257 258 259 261 265 268 267
314 319 322 323 322 320 318 318 321 325 328 328 323 312 306 306 299 285 267 243 226 214 205 202 200 199 202 205 207 211 215 218 220 218 216 215 214 212 211 212 213 213 215 218 222 224 226 230 236 243 248 250 252 254 257 258 260 261 259 255 254 253 252 251 251 252 252 250 249 251 254 255 255 256 257 259 261 261 262 264 265 267 271 274 274
311 315 321 324 322 319 318 318 321 326 331 331 326 318 310 307 303 291 271 248 230 216 207 202 201 202 205 206 209 212 215 218 220 219 218 217 215 213 212 211 213 214 217 220 223 225 227 231 237 243 249 253 256 258 261 263 263 263 261 258 254 253 252 251 251 251 252 252 253 255 257 257 257 259 260 263 265 267 269 271 271 271 272 274 275
309 312 322 322 317 316 317 317 319 325 331 333 329 321 313 310 308 298 277 254 235 218 210 206 205 206 207 209 211 213 213 215 216 216 216 217 217 217 215 214 215 215 216 220 224 226 227 230 236 243 249 254 258 261 264 267 267 265 265 264 262 259 255 253 253 253 254 255 256 257 258 258 259 259 260 261 264 265 267 269 270 271 272 272 274
308 313 323 321 314 313 315 315 317 322 328 331 330 324 317 313 310 301 283 259 239 225 218 215 212 211 212 213 214 216 216 216 215 216 216 217 218 220 220 221 223 221 220 221 224 226 230 232 235 242 247 253 259 263 265 267 268 266 265 264 262 262 261 261 262 263 265 266 265 263 262 261 260 260 260 260 262 263 264 266 267 268 269 270 272
310 318 323 317 310 310 313 313 315 320 326 330 330 327 321 316 310 303 287 264 247 236 229 224 219 217 217 218 218 219 219 218 218 220 222 224 226 227 228 231 234 233 232 233 233 235 239 241 241 244 246 248 256 265 271 274 272 269 268 266 264 266 268 268 270 273 272 268 264 261 260 259 259 259 259 259 261 262 262 263 264 265 266 266 267
313 318 316 310 307 309 312 312 313 319 325 327 328 328 325 318 313 305 292 274 260 249 238 232 228 225 224 223 222 221 221 222 223 225 227 230 234 236 238 242 245 246 246 247 245 247 252 253 251 252 253 252 259 270 280 279 270 266 266 268 269 270 270 270 273 274 268 260 255 253 253 253 253 253 253 254 256 258 259 261 262 263 263 263 264
313 313 310 307 308 310 312 312 313 317 322 324 325 327 326 322 316 307 294 280 268 255 245 242 238 234 232 230 227 226 225 225 227 228 230 234 239 243 246 247 249 253 256 254 249 248 252 253 252 256 261 263 267 273 276 273 268 265 266 266 267 268 267 266 268 264 256 249 246 246 246 247 246 246 246 248 251 252 253 255 258 260 260 260 261